Location: Alpha Ridge Park
(39.3209°N, 76.9128°W)
Time: 18:36:54
(UTC-04:00)

S-56A Canister/Altair - Pass Details

Date: 20 May 2019
Orbit: 633 x 2499 km, 38.9° (Epoch: 14 June)

Event Time Altitude Azimuth Distance (km) Brightness Sun altitude
Rises 01:42:56 0° 204° (SSW) 3,323 - -30.1°
Reaches altitude 10° 01:45:31 10° 190° (S) 2,581 - -30.0°
Maximum altitude 01:50:29 25° 136° (SE) 2,074 - -29.8°
Exits shadow 01:52:05 24° 118° (ESE) 2,272 9.7 -29.7°
Drops below altitude 10° 01:57:09 10° 85° (E) 3,566 11.1 -29.5°
Sets 02:01:27 0° 75° (ENE) 4,907 12.0 -29.3°
